{"data":{"norad_id":59459,"intl_designator":"2024-068E","name":"STARLINK-31631","alt_names":[],"object_type":"PAYLOAD","status":"ACTIVE","operator":null,"country":"US","launch_date":"2024-04-10","launch_site_code":"AFETR","launch_vehicle":null,"mission":null,"orbit_class":"UNKNOWN","rcs_meters":null,"size_class":null,"mass_kg":null,"dimensions":null,"purposes":["comms"],"wikipedia_slug":null,"has_3d_model":false,"image_url":null,"decayed_at":null,"tle_current":{"epoch":"2026-05-25T04:13:14.270304Z","epoch_age_seconds":63092,"freshness":"FRESH","line1":"1 59459U 24068E   26145.17585961 -.00000357  00000+0 -34362-5 0  9991","line2":"2 59459  43.0032 318.8184 0001272 275.4249  84.6458 15.27575400120266","mean_motion":15.275754,"eccentricity":0.0001272,"inclination_deg":43.0032,"raan_deg":318.8184,"arg_perigee_deg":275.4249,"mean_anomaly_deg":84.6458,"bstar":-3.4362e-6,"rev_number":12026,"period_min":94.267032579865,"perigee_km":482.19012550558,"apogee_km":483.93561475254,"semimajor_km":6861.1998701291,"source":"CELESTRAK","updated_at":"2026-05-25T13:38:18.948602Z"}}}